Regional Weather Roundup
Issued by NWS

Home | Current Version | Previous Version | Graphics & Text | Print | Product List | Glossary On
Versions: 1 2 3 4 5 6 7 8 9 10 11 12 13 14 15 16 17 18 19 20 21 22 23 24 25 26 27 28 29 30
000
ASUS45 KGTF 022210
RWRMT
MONTANA HOURLY WEATHER ROUNDUP
NATIONAL WEATHER SERVICE GREAT FALLS MT
400 PM MDT SAT MAY 02 2015

NOTE: "FAIR" INDICATES FEW OR NO CLOUDS BELOW 12000 FEET WITH NO
SIGNIFICANT WEATHER AND/OR OBSTRUCTIONS TO VISIBILITY.

MTZ001>007-043-022300-
WEST OF THE DIVIDE

CITY           SKY/WX    TMP DP  RH WIND       PRES   REMARKS
KALISPELL      CLEAR     69  12  11 W13G22    29.80S
MISSOULA       SUNNY     68  13  12 W18G24    29.84F
BUTTE          CLOUDY    63  21  20 NW14G33   29.85F
DEER LODGE       N/A     64  16  15 W10       29.88R
EUREKA           N/A     61  21  21 NW8       29.85S
LIBBY            N/A     64  18  16 W9        29.86S
$$

MTZ008-052>055-022300-
SOUTHWEST MONTANA

CITY           SKY/WX    TMP DP  RH WIND       PRES   REMARKS
BOZEMAN        CLOUDY    69  24  18 W23G30    29.78F
DILLON         PTSUNNY   71  16  12 W18       29.80F
$$

MTZ009-010-012-014-046-048-049-054-022300-
EAST SLOPES AND CENTRAL MONTANA

CITY           SKY/WX    TMP DP  RH WIND       PRES   REMARKS
CUT BANK       MOSUNNY   55  32  41 NE16      29.84R
GREAT FALLS    MOSUNNY   67  30  25 N12G17    29.77F
MALMSTROM AFB  MOSUNNY   65  29  25 NW2       29.78F
HELENA         PTSUNNY   72  17  12 NW17G29   29.77F
$$

MTZ011-013-016-021-045-047-050-051-022300-
NORTH CENTRAL MONTANA

CITY           SKY/WX    TMP DP  RH WIND       PRES   REMARKS
HAVRE          SUNNY     62  35  36 N16       29.81S
LEWISTOWN      CLOUDY    65  34  31 NW10      29.78R
CHINOOK          N/A     59  36  41 NW13      29.81R
FORT BENTON      N/A     63  36  36 NW13G20   29.80S
$$

MTZ017>020-022>042-056>058-061-062-022300-
EASTERN PLAINS

CITY           SKY/WX    TMP DP  RH WIND       PRES   REMARKS
BAKER          MOSUNNY   78  28  16 NW20G28   29.71F
BILLINGS       CLOUDY    77  22  13 W21G28    29.73F
GLASGOW        SUNNY     71  37  28 NW14G23   29.70S
JORDAN           N/A     74  29  19 NW12      29.70R
LIVINGSTON     MOSUNNY   71  21  15 W28G38    29.76F
MILES CITY     MOSUNNY   80  26  13 W20G32    29.66F
SIDNEY         MOSUNNY   79  30  17 NW13G25   29.67R
WOLF POINT     MOSUNNY   77  32  19 NW20      29.66S
BIG TIMBER       N/A     72  21  15 W24G31    29.76S
FORSYTH          N/A     79  25  13 W12       29.67S
PLENTYWOOD       N/A     68  34  28 N12G20    29.69F
POPLAR           N/A     75  28  17 W16G28    29.66F
$$

REGIONAL REPORTS...DAKOTAS

CITY           SKY/WX    TMP DP  RH WIND       PRES   REMARKS
WILLISTON      SUNNY     76  30  18 NW13      29.65S
MINOT          SUNNY     77  31  18 W17G23    29.58S
DICKINSON      MOSUNNY   76  25  15 W20G30    29.65S
BEACH          FAIR      73  25  16 NW24G31   29.70S
CROSBY         FAIR      72  32  23 NW13G21   29.68R
WATFORD CITY   FAIR      77  28  16 NW16      29.63S
BISMARCK       MOSUNNY   85  36  17 W18G25    29.60S
GRAND FORKS    LGT RAIN  69  48  47 SW15G33   29.65R
FARGO          MOSUNNY   85  29  13 S24       29.59F
BUFFALO SD       N/A     77  24  14 W13G25    29.66F
RAPID CITY     MOSUNNY   82  36  19 N20       29.70S
$$

REGIONAL REPORTS...WYOMING/IDAHO/WASHINGTON

CITY           SKY/WX    TMP DP  RH WIND       PRES   REMARKS
GILLETTE       PTSUNNY   75  25  15 N12       29.78F
SHERIDAN       PTSUNNY   75  28  17 E6        29.76F
BUFFALO WY     MOSUNNY   73  23  15 VRB3      29.81F
CODY           MOSUNNY   73  18  12 W10G24    29.79F
YELLOWSTONE LA   N/A     58  18  21 VRB6      29.98F
IDAHO FALLS    MOSUNNY   76  25  15 W14G29    29.81F
SALMON         MOSUNNY   75  23  14 NW18G25   29.75F
BOISE          SUNNY     79  28  15 NW12G18   29.82F
SPOKANE        MOSUNNY   65  15  14 W9        29.93S
$$

REGIONAL REPORTS...ALBERTA

CITY           SKY/WX    TMP DP  RH WIND       PRES   REMARKS
EDMONTON       MOSUNNY   46  32  57 NW12G21   29.85R
CALGARY        FLURRIES  46  23  39 NW24G35   29.92R
LETHBRIDGE     PTSUNNY   48  34  57 NW14G28   29.91R
MEDICINE HAT   LGT RAIN  54  30  40 W14       29.86R
$$

REGIONAL REPORTS...SASKATCHEWAN

CITY           SKY/WX    TMP DP  RH WIND       PRES   REMARKS
SWIFT CURRENT  CLOUDY    54  28  37 NW20      29.76S
REGINA         CLOUDY    59  36  41 W14G20    29.71F
SASKATOON      PTSUNNY   54  34  47 NW20G31   29.73R
$$



USA.gov is the U.S. government's official web portal to all federal, state and local government web resources and services.